Location: Stockholm
(59.3333°N, 18.0500°E)
Time: 19:39:59
(UTC+01:00)

ISS - Visible Passes

Search period start: 16 December 2025 00:00
Search period end: 26 December 2025 00:00
Orbit: 416 x 420 km, 51.6° (Epoch: 15 December)

Date Brightness Start Highest point End Pass type
(mag) Time Alt. Az. Time Alt. Az. Time Alt. Az.
16 Dec -0.8 06:30:09 10° S 06:32:02 14° SSE 06:33:55 10° ESE visible
17 Dec -0.7 05:43:06 10° S 05:44:16 11° SSE 05:45:26 10° SE visible
17 Dec -1.3 07:17:33 10° SW 07:20:10 21° S 07:22:48 10° ESE visible
18 Dec -1.3 06:29:50 10° SSW 06:32:19 19° SSE 06:34:48 10° ESE visible
19 Dec -1.2 05:42:51 13° SSW 05:44:28 17° SSE 05:46:42 10° ESE visible
19 Dec -1.5 07:17:48 10° SW 07:20:30 22° S 07:23:12 10° SE visible
20 Dec -1.0 04:56:55 14° SSE 04:56:55 14° SSE 04:58:27 10° ESE visible
20 Dec -1.6 06:29:55 10° SW 06:32:37 22° S 06:35:17 10° ESE visible
21 Dec -1.7 05:43:50 19° SSW 05:44:42 21° S 05:47:19 10° ESE visible
21 Dec -1.5 07:18:12 10° WSW 07:20:46 20° S 07:23:21 10° SE visible
22 Dec -1.2 04:57:44 17° SE 04:57:44 17° SE 04:59:15 10° ESE visible
22 Dec -1.7 06:30:39 13° SW 06:32:51 22° S 06:35:32 10° SE visible
23 Dec -1.9 05:44:30 22° SSW 05:44:54 22° S 05:47:37 10° SE visible
23 Dec -1.3 07:18:47 10° WSW 07:20:56 16° SSW 07:23:04 10° SSE visible
24 Dec -1.2 04:58:19 17° SE 04:58:19 17° SE 04:59:38 10° ESE visible
24 Dec -1.6 06:31:14 13° SW 06:33:01 18° SSW 06:35:26 10° SSE visible
25 Dec -1.8 05:45:01 20° SSW 05:45:05 20° S 05:47:40 10° SE visible
25 Dec -1.1 07:20:08 10° SW 07:20:57 11° SSW 07:21:45 10° SSW visible
